Location: Olomouc
(49.5830°N, 17.2500°E)
Time: 04:17:48
(UTC+01:00)

ISS - Pass Details

Date: 06 November 2021
Orbit: 417 x 423 km, 51.6° (Epoch: 01 December)

Event Time Altitude Azimuth Distance (km) Brightness Sun altitude
Exits shadow 05:30:16 22° 263° (W) 969 -2.5 -12.8°
Maximum altitude 05:31:51 36° 212° (SSW) 686 -2.9 -12.6°
Drops below altitude 10° 05:34:57 10° 144° (SE) 1,493 -0.3 -12.1°
Sets 05:37:08 0° 136° (SE) 2,353 1.0 -11.7°
